Location: Plymouth
(43.7570°N, 71.6890°W)
Time: 13:41:27
(UTC-04:00)

Amateur Radio Satellites - All Passes

Search period start: 19 April 2015 13:11
Search period end: 20 April 2015 13:11
Location: Plymouth, 43.7570°N, 71.6890°W

Satellite Date Start Highest point End Downlink Frequencies (MHz)
Time Altitude Azimuth
AIST 1 19 Apr 13:16:55 13:21:00 44° 267° (W) 13:25:02
AISAT 19 Apr 13:17:07 13:19:25 14° 298° (WNW) 13:21:32 437.250
SO-50 19 Apr 13:20:50 13:25:19 51° 119° (ESE) 13:30:00 436.795
CUBEBUG 1 19 Apr 13:27:54 13:31:03 19° 295° (WNW) 13:34:06 437.445
YUBILEINY 19 Apr 13:28:26 13:36:08 31° 295° (WNW) 13:43:39 435.215
ESTCUBE 1 19 Apr 13:30:28 13:33:31 18° 296° (WNW) 13:36:26 437.505/2401.250
ITUPSAT 1 19 Apr 13:31:05 13:34:20 19° 91° (E) 13:37:44 437.325
JAS-2 19 Apr 13:34:17 13:35:48 11° 48° (NE) 13:37:47 435.910
TISAT 1 19 Apr 13:36:13 13:40:25 62° 286° (WNW) 13:44:36 437.305
SPROUT 19 Apr 13:39:32 13:43:41 46° 288° (WNW) 13:47:49 437.525
AO-7 19 Apr 13:43:24 13:48:28 19° 48° (NE) 13:53:50 29.400- 29.500
RS-15 19 Apr 13:50:27 13:56:39 18° 100° (E) 14:03:37 29.354- 29.394
ISS 19 Apr 14:01:55 14:04:24 21° 136° (SE) 14:06:56 145.825
HORYU 2 19 Apr 14:04:23 14:06:01 12° 61° (ENE) 14:07:52 437.375
BEESAT 19 Apr 14:05:42 14:10:12 41° 98° (E) 14:14:42 436.000
SWISSCUBE 19 Apr 14:06:56 14:11:30 46° 98° (E) 14:16:05 437.505
Oscar 19 19 Apr 14:07:24 14:12:10 38° 263° (W) 14:16:58 437.125/150
BEESAT 2 19 Apr 14:07:37 14:11:28 39° 243° (WSW) 14:15:16 435.950
Gurwin Techsat 1B 19 Apr 14:13:48 14:19:04 71° 73° (ENE) 14:24:24 435.225
BEESAT 3 19 Apr 14:15:42 14:19:12 27° 245° (WSW) 14:22:36 437.485
KKS-1 19 Apr 14:21:30 14:22:30 11° 87° (E) 14:23:46 437.445
AIST 2 19 Apr 14:24:06 14:28:23 80° 237° (WSW) 14:32:33 435.215
ITAMSAT 1 19 Apr 14:25:40 14:30:52 78° 256° (WSW) 14:36:05 435.822/435.867
Cosmos 2504 19 Apr 14:45:27 14:54:20 82° 280° (W) 15:03:15 435.465 / 435.565
SO-50 19 Apr 15:02:10 15:06:10 26° 319° (NW) 15:10:13 436.795
ITUPSAT 1 19 Apr 15:07:57 15:12:35 50° 289° (WNW) 15:17:10 437.325
JAS-2 19 Apr 15:11:54 15:19:13 47° 67° (ENE) 15:26:33 435.910
STARS 19 Apr 15:30:46 15:34:54 37° 98° (E) 15:39:03 437.465
AO-7 19 Apr 15:31:48 15:40:00 72° 69° (ENE) 15:48:17 29.400- 29.500
ISS 19 Apr 15:37:20 15:40:33 56° 332° (NNW) 15:43:48 145.825
HORYU 2 19 Apr 15:37:36 15:42:05 81° 257° (WSW) 15:46:37 437.375
BEESAT 19 Apr 15:44:02 15:47:51 24° 295° (WNW) 15:51:34 436.000
SWISSCUBE 19 Apr 15:45:28 15:49:07 22° 296° (WNW) 15:52:38 437.505
GONETS M04 19 Apr 15:54:42 16:00:32 21° 79° (E) 16:06:47
KKS-1 19 Apr 15:55:17 15:59:47 77° 284° (WNW) 16:04:15 437.445
Gurwin Techsat 1B 19 Apr 15:56:26 15:59:41 16° 272° (W) 16:02:43 435.225
RS-15 19 Apr 15:56:29 16:07:20 78° 120° (ESE) 16:18:28 29.354- 29.394
CUTE-I 19 Apr 16:27:39 16:29:06 11° 56° (ENE) 16:30:49 437.470
Cubesat XI-IV 19 Apr 16:34:09 16:36:28 13° 58° (ENE) 16:39:01 437.490
Cosmos 2504 19 Apr 16:43:04 16:49:21 20° 302° (WNW) 16:55:13 435.465 / 435.565
JAS-2 19 Apr 16:56:54 17:04:16 43° 265° (W) 17:11:35 435.910
STARS 19 Apr 17:07:39 17:11:10 23° 294° (WNW) 17:14:37 437.465
MOZHAYETS 4 19 Apr 17:08:13 17:12:37 43° 98° (E) 17:17:00
ISS 19 Apr 17:14:49 17:17:25 21° 352° (N) 17:20:02 145.825
AO-7 19 Apr 17:26:50 17:33:37 26° 268° (W) 17:40:10 29.400- 29.500
CUSAT 1 19 Apr 17:29:38 17:31:43 16° 85° (E) 17:34:12 437.405
Cosmos 2499 19 Apr 17:39:27 17:44:19 17° 78° (ENE) 17:49:40 435.465 / 435.565
GONETS M04 19 Apr 17:47:37 17:56:23 84° 278° (W) 18:05:17
M-CUBED/EXP-1 PRIME 19 Apr 17:59:06 18:01:21 14° 92° (E) 18:03:44 437.505
CUTE-I 19 Apr 18:03:03 18:08:22 73° 74° (ENE) 18:13:42 437.470
Cubesat XI-IV 19 Apr 18:10:31 18:15:52 85° 76° (ENE) 18:21:14 437.490
RS-15 19 Apr 18:10:47 18:20:54 39° 327° (NNW) 18:31:14 29.354- 29.394
PCSat 19 Apr 18:10:49 18:15:50 37° 49° (NE) 18:20:52 145.827
CUBESAT XI-V 19 Apr 18:25:41 18:29:18 23° 92° (E) 18:32:59 437.345
PRISM 19 Apr 18:43:33 18:46:33 20° 93° (E) 18:49:38 437.425
MOZHAYETS 4 19 Apr 18:46:05 18:49:36 21° 294° (WNW) 18:52:59
AUBIESAT-1 19 Apr 18:46:38 18:50:47 39° 102° (ESE) 18:54:37 437.475
ISS 19 Apr 18:51:49 18:54:32 24° 12° (NNE) 18:57:15 145.825
HO-68 19 Apr 18:54:32 18:59:30 21° 55° (NE) 19:04:42 435.675
BRITE-PL 19 Apr 18:58:41 19:00:41 14° 63° (ENE) 19:02:53 437.365/2234.400
STRAND 1 19 Apr 19:00:42 19:04:53 26° 93° (E) 19:09:09 437.568
DANDE 19 Apr 19:05:49 19:08:36 36° 288° (WNW) 19:12:03 436.750
CUSAT 1 19 Apr 19:11:26 19:14:11 24° 294° (WNW) 19:17:30 437.405
GOMX 1 19 Apr 19:20:55 19:23:17 15° 64° (ENE) 19:25:52 467.674
Cosmos 2499 19 Apr 19:27:28 19:36:18 79° 96° (E) 19:45:06 435.465 / 435.565
M-CUBED/EXP-1 PRIME 19 Apr 19:32:19 19:36:47 59° 292° (WNW) 19:40:52 437.505
VERMONT LUNAR 19 Apr 19:45:03 19:47:42 22° 158° (SSE) 19:50:24 437.305
CUTE-I 19 Apr 19:45:57 19:49:07 15° 272° (W) 19:52:01 437.470
GONETS M04 19 Apr 19:48:47 19:54:54 19° 303° (WNW) 20:00:40
PCSat 19 Apr 19:54:18 19:59:16 36° 248° (WSW) 20:04:09 145.827
Cubesat XI-IV 19 Apr 19:54:19 19:56:47 13° 274° (W) 19:58:55 437.490
CUBESAT XI-V 19 Apr 20:02:37 20:06:54 38° 290° (WNW) 20:11:07 437.345
SO-50 19 Apr 20:11:33 20:14:23 15° 31° (NNE) 20:17:21 436.795
COMPASS 1 19 Apr 20:17:07 20:20:50 31° 70° (ENE) 20:24:37 437.405
PRISM 19 Apr 20:18:24 20:22:10 35° 290° (WNW) 20:25:53 437.425
AUBIESAT-1 19 Apr 20:21:51 20:25:19 22° 301° (WNW) 20:28:32 437.475
CINEMA 3 19 Apr 20:26:22 20:29:51 26° 67° (ENE) 20:33:33 145.822/145.860
ISS 19 Apr 20:28:01 20:31:17 79° 34° (NNE) 20:34:32 145.825
CANX-2 19 Apr 20:28:07 20:32:22 66° 75° (ENE) 20:36:40 2200.000
DOVE 4 19 Apr 20:28:28 20:32:30 51° 73° (ENE) 20:36:43 437.250
RS-15 19 Apr 20:28:42 20:37:28 25° 1° (N) 20:46:31 29.354- 29.394
SEEDS 19 Apr 20:31:22 20:35:31 54° 73° (ENE) 20:39:43 437.485
BRITE-PL 19 Apr 20:34:46 20:38:50 56° 260° (W) 20:42:57 437.365/2234.400
CUTE 1.7 + AOD 2 19 Apr 20:38:18 20:42:34 77° 76° (ENE) 20:46:54 437.475
HO-68 19 Apr 20:39:15 20:46:27 87° 254° (WSW) 20:53:43 435.675
STRAND 1 19 Apr 20:39:29 20:44:16 41° 291° (WNW) 20:48:59 437.568
PHONESAT 2.4 19 Apr 20:43:38 20:46:32 23° 158° (SSE) 20:49:28 2401.200-2431.200
FUNcube-1 19 Apr 20:44:36 20:46:58 15° 63° (ENE) 20:49:32 145.935
GOMX 1 19 Apr 20:57:02 21:01:04 50° 261° (W) 21:05:13 467.674
UKube-1 19 Apr 21:01:20 21:03:44 15° 63° (ENE) 21:06:16 .
AAUSAT CUBESAT 2 19 Apr 21:04:54 21:09:08 89° 86° (E) 21:13:24 437.432
ZACube-1 19 Apr 21:05:55 21:09:22 24° 67° (ENE) 21:12:58 437.345
CUBEBUG 2 19 Apr 21:10:37 21:14:36 40° 71° (ENE) 21:18:46 437.445
Oscar 11 19 Apr 21:20:27 21:24:44 63° 74° (ENE) 21:29:04 145.826/435.025
VERMONT LUNAR 19 Apr 21:21:37 21:24:52 45° 174° (S) 21:28:08 437.305
Cosmos 2499 19 Apr 21:23:20 21:30:32 26° 298° (WNW) 21:37:22 435.465 / 435.565
DELFI C3 19 Apr 21:24:20 21:28:19 51° 73° (ENE) 21:32:19 145.870
Cosmos 2491 19 Apr 21:33:53 21:36:06 12° 74° (ENE) 21:39:01 435.465 / 435.565
YUBILEINY 19 Apr 21:38:50 21:46:30 33° 67° (ENE) 21:54:16 435.215
DX 1 19 Apr 21:42:44 21:46:46 40° 70° (ENE) 21:50:51 434.975-435.025
UWE-3 19 Apr 21:50:49 21:55:05 88° 77° (ENE) 21:59:32 435.000/436.395/437.385
SO-50 19 Apr 21:50:56 21:55:54 67° 53° (NE) 22:00:48 436.795
COMPASS 1 19 Apr 21:53:03 21:56:34 24° 267° (W) 22:00:02 437.405
HUMSAT D 19 Apr 21:55:19 21:59:12 39° 71° (ENE) 22:03:12 437.325/437.525
CINEMA 3 19 Apr 22:03:15 22:07:00 30° 266° (W) 22:10:52 145.822/145.860
ISS 19 Apr 22:05:28 22:07:17 14° 227° (SW) 22:09:01 145.825
CANX-2 19 Apr 22:07:06 22:08:51 12° 273° (W) 22:10:21 2200.000
DOVE 4 19 Apr 22:08:23 22:10:45 14° 272° (W) 22:12:58 437.250
SEEDS 19 Apr 22:09:17 22:11:43 14° 271° (W) 22:13:59 437.485
FUNcube-1 19 Apr 22:18:39 22:22:51 58° 260° (W) 22:27:12 145.935
PHONESAT 2.4 19 Apr 22:20:58 22:24:25 47° 174° (S) 22:27:53 2401.200-2431.200
VELOX 1 19 Apr 22:22:56 22:27:10 48° 72° (ENE) 22:31:26 145.980
HO-68 19 Apr 22:30:57 22:35:21 16° 274° (W) 22:39:20 435.675
ANTELSAT 19 Apr 22:34:33 22:38:15 23° 92° (E) 22:42:01 437.575/2403.000
UKube-1 19 Apr 22:35:12 22:39:27 58° 259° (WSW) 22:43:44 .
AISAT 19 Apr 22:37:54 22:42:16 73° 75° (ENE) 22:46:41 437.250
50 SAT 19 Apr 22:39:11 22:43:10 76° 74° (ENE) 22:47:12 437.505
ZACube-1 19 Apr 22:41:44 22:45:36 32° 265° (W) 22:49:34 437.345
RS-15 19 Apr 22:43:33 22:54:02 40° 34° (NNE) 23:05:04 29.354- 29.394
CUBEBUG 1 19 Apr 22:48:14 22:52:19 42° 71° (ENE) 22:56:26 437.445
CUBEBUG 2 19 Apr 22:48:21 22:51:32 20° 269° (W) 22:54:42 437.445
QB50P2 19 Apr 22:52:02 22:54:37 16° 90° (E) 22:57:21 145.880/145.840
ESTCUBE 1 19 Apr 22:53:23 22:57:48 56° 73° (ENE) 23:02:14 437.505/2401.250
TISAT 1 19 Apr 22:56:50 22:58:23 12° 62° (ENE) 23:00:08 437.305
VERMONT LUNAR 19 Apr 22:58:57 23:02:10 40° 191° (S) 23:05:20 437.305
Oscar 11 19 Apr 22:59:21 23:01:25 13° 272° (W) 23:03:17 145.826/435.025
SPROUT 19 Apr 23:00:34 23:03:12 17° 65° (ENE) 23:05:58 437.525
DELFI C3 19 Apr 23:01:35 23:03:49 14° 271° (W) 23:05:54 145.870
NANOSAT C BR1 19 Apr 23:14:11 23:17:47 26° 94° (E) 23:21:26 145.865
POPSAT HIP 1 19 Apr 23:14:16 23:17:52 26° 94° (E) 23:21:33 437.405
DX 1 19 Apr 23:20:02 23:23:14 19° 268° (W) 23:26:20 434.975-435.025
Cosmos 2491 19 Apr 23:22:49 23:31:21 64° 93° (E) 23:40:00 435.465 / 435.565
TIGRISAT 19 Apr 23:27:31 23:32:16 75° 102° (ESE) 23:36:58 435.000
UNISAT 6 19 Apr 23:28:42 23:33:29 79° 104° (ESE) 23:38:11 437.425
HUMSAT D 19 Apr 23:32:05 23:35:11 19° 269° (W) 23:38:11 437.325/437.525
SO-50 19 Apr 23:32:42 23:36:00 17° 249° (WSW) 23:39:07 436.795
YUBILEINY 19 Apr 23:35:19 23:43:53 58° 268° (W) 23:52:19 435.215
POLYITAN 1 19 Apr 23:40:27 23:44:41 52° 100° (E) 23:48:54 437.675
O/OREOS (USA 219) 19 Apr 23:43:59 23:48:33 67° 111° (ESE) 23:53:07 437.305
DUCHIFAT 1 19 Apr 23:49:49 23:54:04 64° 101° (E) 23:58:19 145.980
PHONESAT 2.4 19 Apr 23:59:02 00:02:27 41° 191° (S) 00:05:50 2401.200-2431.200
VELOX 1 20 Apr 00:01:09 00:04:04 17° 269° (W) 00:06:50 145.980
QB50P1 20 Apr 00:02:55 00:07:13 90° 285° (WNW) 00:11:30 145.935-145.965
ANTELSAT 20 Apr 00:10:46 00:15:12 40° 290° (WNW) 00:19:35 437.575/2403.000
BUGSAT 1 20 Apr 00:14:31 00:18:38 86° 102° (ESE) 00:22:48 437.445
AISAT 20 Apr 00:18:05 00:19:29 11° 273° (W) 00:20:37 437.250
CUBEBUG 1 20 Apr 00:25:49 00:28:55 18° 269° (W) 00:31:54 437.445
QB50P2 20 Apr 00:26:41 00:30:51 49° 288° (WNW) 00:34:59 145.880/145.840
TISAT 1 20 Apr 00:29:30 00:33:40 70° 258° (WSW) 00:37:52 437.305
ESTCUBE 1 20 Apr 00:32:19 00:35:05 15° 271° (W) 00:37:41 437.505/2401.250
SPROUT 20 Apr 00:34:47 00:38:57 50° 261° (W) 00:43:08 437.525
VERMONT LUNAR 20 Apr 00:37:03 00:39:14 16° 206° (SSW) 00:41:20 437.305
Cosmos 2504 20 Apr 00:37:39 00:45:21 41° 70° (ENE) 00:52:37 435.465 / 435.565
ITUPSAT 1 20 Apr 00:39:05 00:43:00 26° 66° (ENE) 00:47:00 437.325
NANOSAT C BR1 20 Apr 00:49:54 00:53:38 29° 291° (WNW) 00:57:19 145.865
POPSAT HIP 1 20 Apr 00:50:01 00:53:45 29° 291° (WNW) 00:57:27 437.405
RS-15 20 Apr 00:56:10 01:07:42 79° 239° (WSW) 01:19:43 29.354- 29.394
TIGRISAT 20 Apr 01:05:55 01:08:27 14° 298° (WNW) 01:10:49 435.000
UNISAT 6 20 Apr 01:07:18 01:09:40 13° 299° (WNW) 01:11:50 437.425
BEESAT 20 Apr 01:13:19 01:18:00 55° 72° (ENE) 01:22:42 436.000
SWISSCUBE 20 Apr 01:14:38 01:19:22 62° 73° (ENE) 01:24:07 437.505
POLYITAN 1 20 Apr 01:17:28 01:20:14 16° 296° (WNW) 01:22:51 437.675
KKS-1 20 Apr 01:20:56 01:22:53 13° 62° (ENE) 01:25:03 437.445
Cosmos 2491 20 Apr 01:21:23 01:28:57 30° 295° (WNW) 01:36:21 435.465 / 435.565
O/OREOS (USA 219) 20 Apr 01:25:34 01:28:31 16° 311° (NW) 01:31:18 437.305
DUCHIFAT 1 20 Apr 01:27:13 01:29:27 14° 297° (WNW) 01:31:30 145.980
PHONESAT 2.4 20 Apr 01:37:51 01:40:14 17° 207° (SSW) 01:42:34 2401.200-2431.200
AIST 1 20 Apr 01:47:13 01:51:33 82° 278° (W) 01:55:54
GONETS M04 20 Apr 02:03:19 02:05:22 11° 48° (NE) 02:08:04
ITUPSAT 1 20 Apr 02:16:17 02:20:45 37° 263° (W) 02:25:13 437.325
Oscar 19 20 Apr 02:17:02 02:22:15 69° 101° (ESE) 02:27:26 437.125/150
STARS 20 Apr 02:28:59 02:33:02 39° 70° (ENE) 02:37:09 437.465
Gurwin Techsat 1B 20 Apr 02:29:15 02:33:33 25° 92° (E) 02:37:57 435.225
Cosmos 2504 20 Apr 02:31:09 02:38:51 43° 272° (W) 02:45:56 435.465 / 435.565
ITAMSAT 1 20 Apr 02:37:28 02:42:07 33° 96° (E) 02:46:48 435.822/435.867
BEESAT 20 Apr 02:53:02 02:56:15 17° 270° (W) 02:59:18 436.000
KKS-1 20 Apr 02:54:35 02:59:00 72° 257° (WSW) 03:03:28 437.445
SWISSCUBE 20 Apr 02:54:48 02:57:43 15° 271° (W) 03:00:26 437.505
RS-15 20 Apr 03:10:42 03:18:40 20° 259° (W) 03:26:03 29.354- 29.394
HORYU 2 20 Apr 03:28:39 03:31:39 18° 91° (E) 03:34:47 437.375
AO-7 20 Apr 03:33:10 03:38:49 21° 89° (E) 03:44:52 29.400- 29.500
GONETS M04 20 Apr 03:56:22 04:04:59 53° 74° (ENE) 04:13:36
Oscar 19 20 Apr 03:57:40 04:01:06 18° 299° (WNW) 04:04:22 437.125/150
DANDE 20 Apr 03:58:33 04:03:54 26° 68° (ENE) 04:10:24 436.750
CUSAT 1 20 Apr 04:01:08 04:07:13 34° 70° (ENE) 04:14:24 437.405
BEESAT 2 20 Apr 04:02:52 04:06:20 27° 115° (ESE) 04:09:53 435.950
AUBIESAT-1 20 Apr 04:04:39 04:05:26 10° 52° (NE) 04:06:26 437.475
STARS 20 Apr 04:06:20 04:09:41 21° 268° (W) 04:12:57 437.465
JAS-2 20 Apr 04:06:23 04:12:12 31° 91° (E) 04:17:32 435.910
Gurwin Techsat 1B 20 Apr 04:08:43 04:13:46 44° 291° (WNW) 04:18:46 435.225
BEESAT 3 20 Apr 04:09:27 04:13:14 37° 117° (ESE) 04:17:05 437.485
MOZHAYETS 4 20 Apr 04:11:14 04:15:41 48° 72° (ENE) 04:20:11
ITAMSAT 1 20 Apr 04:17:00 04:21:36 33° 293° (WNW) 04:26:09 435.822/435.867
AIST 2 20 Apr 04:24:48 04:27:21 16° 111° (ESE) 04:30:04 435.215
M-CUBED/EXP-1 PRIME 20 Apr 04:47:11 04:51:10 28° 61° (ENE) 04:55:17 437.505
HORYU 2 20 Apr 05:04:16 05:08:37 47° 289° (WNW) 05:12:56 437.375
Cosmos 2499 20 Apr 05:18:39 05:25:30 30° 65° (ENE) 05:32:04 435.465 / 435.565
AO-7 20 Apr 05:24:24 05:32:46 87° 289° (WNW) 05:41:07 29.400- 29.500
CUBESAT XI-V 20 Apr 05:30:26 05:34:17 27° 68° (ENE) 05:38:12 437.345
AUBIESAT-1 20 Apr 05:34:42 05:39:23 67° 69° (ENE) 05:44:13 437.475
PRISM 20 Apr 05:35:21 05:38:18 19° 66° (ENE) 05:41:21 437.425
BEESAT 2 20 Apr 05:40:35 05:44:22 33° 313° (NW) 05:48:11 435.950
DANDE 20 Apr 05:40:55 05:47:33 69° 262° (W) 05:55:41 436.750
CUSAT 1 20 Apr 05:43:27 05:50:11 55° 265° (W) 05:58:04 437.405
BEESAT 3 20 Apr 05:47:53 05:51:22 26° 316° (NW) 05:54:51 437.485
MOZHAYETS 4 20 Apr 05:49:53 05:53:13 19° 270° (W) 05:56:26
JAS-2 20 Apr 05:51:05 05:57:35 46° 293° (WNW) 06:03:16 435.910
GONETS M04 20 Apr 05:53:42 06:01:35 36° 274° (W) 06:09:16
AIST 2 20 Apr 06:01:19 06:05:32 58° 308° (NW) 06:09:48 435.215
STRAND 1 20 Apr 06:17:41 06:22:28 43° 70° (ENE) 06:27:19 437.568
CUTE-I 20 Apr 06:19:24 06:23:44 26° 93° (E) 06:28:11 437.470
M-CUBED/EXP-1 PRIME 20 Apr 06:21:23 06:25:50 40° 258° (WSW) 06:30:24 437.505
Cubesat XI-IV 20 Apr 06:26:53 06:31:30 30° 95° (E) 06:36:12 437.490
CUBESAT XI-V 20 Apr 07:07:24 07:11:38 33° 265° (W) 07:15:50 437.345
PRISM 20 Apr 07:09:34 07:13:32 40° 262° (W) 07:17:29 437.425
Cosmos 2499 20 Apr 07:11:24 07:19:16 58° 268° (W) 07:26:29 435.465 / 435.565
AUBIESAT-1 20 Apr 07:11:47 07:14:41 15° 267° (W) 07:17:25 437.475
AO-7 20 Apr 07:18:28 07:24:36 23° 309° (NW) 07:30:29 29.400- 29.500
DANDE 20 Apr 07:27:05 07:30:19 13° 275° (W) 07:33:14 436.750
AIST 2 20 Apr 07:43:37 07:45:06 11° 329° (NNW) 07:46:27 435.215
STRAND 1 20 Apr 07:57:42 08:01:53 25° 267° (W) 08:06:00 437.568
CUTE-I 20 Apr 07:59:00 08:04:02 43° 291° (WNW) 08:09:01 437.470
Cubesat XI-IV 20 Apr 08:06:49 08:11:42 37° 292° (WNW) 08:16:31 437.490
HO-68 20 Apr 08:07:27 08:11:28 16° 86° (E) 08:15:53 435.675
O/OREOS (USA 219) 20 Apr 08:14:17 08:17:32 19° 52° (NE) 08:20:51 437.305
CANX-2 20 Apr 08:15:03 08:15:46 10° 86° (E) 08:16:45 2200.000
CUTE 1.7 + AOD 2 20 Apr 08:24:18 08:25:59 12° 87° (E) 08:27:54 437.475
DOVE 4 20 Apr 08:26:40 08:29:27 15° 89° (E) 08:32:33 437.250
BRITE-PL 20 Apr 08:36:52 08:41:26 40° 97° (E) 08:46:22 437.365/2234.400
AAUSAT CUBESAT 2 20 Apr 08:48:31 08:50:25 13° 88° (E) 08:52:29 437.432
PCSat 20 Apr 08:54:46 08:58:57 24° 109° (ESE) 09:03:17 145.827
GOMX 1 20 Apr 08:56:20 09:01:00 41° 97° (E) 09:05:58 467.674
Oscar 11 20 Apr 09:09:28 09:10:04 10° 86° (E) 09:10:56 145.826/435.025
Cosmos 2491 20 Apr 09:31:41 09:39:27 34° 67° (ENE) 09:47:22 435.465 / 435.565
COMPASS 1 20 Apr 09:34:28 09:38:35 48° 99° (E) 09:42:39 437.405
ANTELSAT 20 Apr 09:35:06 09:38:39 24° 66° (ENE) 09:42:20 437.575/2403.000
UWE-3 20 Apr 09:40:17 09:43:24 18° 90° (E) 09:46:41 435.000/436.395/437.385
QB50P2 20 Apr 09:46:57 09:49:20 15° 64° (ENE) 09:51:53 145.880/145.840
CANX-2 20 Apr 09:48:00 09:52:19 74° 285° (WNW) 09:56:34 2200.000
SEEDS 20 Apr 09:50:05 09:54:23 89° 88° (E) 09:58:38 437.485
O/OREOS (USA 219) 20 Apr 09:52:56 09:57:18 50° 251° (WSW) 10:01:37 437.305
HO-68 20 Apr 09:53:05 10:00:21 88° 110° (ESE) 10:07:32 435.675
CINEMA 3 20 Apr 09:55:33 10:00:22 57° 100° (E) 10:05:19 145.822/145.860
CUTE 1.7 + AOD 2 20 Apr 09:58:09 10:02:25 63° 286° (WNW) 10:06:39 437.475
DOVE 4 20 Apr 10:02:47 10:07:42 69° 285° (WNW) 10:12:51 437.250
FUNcube-1 20 Apr 10:06:03 10:09:50 25° 93° (E) 10:13:41 145.935
NANOSAT C BR1 20 Apr 10:08:24 10:11:45 24° 67° (ENE) 10:15:10 145.865
POPSAT HIP 1 20 Apr 10:08:42 10:12:04 24° 67° (ENE) 10:15:32 437.405
BRITE-PL 20 Apr 10:15:49 10:19:51 26° 292° (WNW) 10:24:02 437.365/2234.400
UKube-1 20 Apr 10:22:08 10:25:21 21° 93° (E) 10:28:39 .
AAUSAT CUBESAT 2 20 Apr 10:22:20 10:26:29 57° 286° (WNW) 10:30:34 437.432
TIGRISAT 20 Apr 10:27:24 10:31:50 76° 75° (ENE) 10:36:25 435.000
ZACube-1 20 Apr 10:28:28 10:32:52 43° 98° (E) 10:37:16 437.345
UNISAT 6 20 Apr 10:28:49 10:33:17 80° 74° (ENE) 10:37:54 437.425
AISAT 20 Apr 10:29:14 10:31:05 13° 88° (E) 10:33:11 437.250
POLYITAN 1 20 Apr 10:34:47 10:38:48 46° 72° (ENE) 10:42:53 437.675
GOMX 1 20 Apr 10:34:55 10:38:59 26° 292° (WNW) 10:43:10 467.674
CUBEBUG 2 20 Apr 10:36:19 10:41:05 79° 101° (E) 10:45:53 437.445
PCSat 20 Apr 10:36:45 10:42:03 53° 306° (NW) 10:47:24 145.827
DELFI C3 20 Apr 10:37:33 10:41:37 75° 101° (ESE) 10:45:39 145.870
YUBILEINY 20 Apr 10:41:45 10:49:25 36° 86° (E) 10:57:15 435.215
Oscar 11 20 Apr 10:42:31 10:46:53 76° 285° (WNW) 10:51:12 145.826/435.025
DUCHIFAT 1 20 Apr 10:43:27 10:47:32 55° 73° (ENE) 10:51:41 145.980
ESTCUBE 1 20 Apr 10:47:48 10:48:22 10° 86° (E) 10:49:14 437.505/2401.250
QB50P1 20 Apr 10:56:46 11:00:58 80° 76° (ENE) 11:05:13 145.935-145.965
DX 1 20 Apr 11:05:32 11:09:52 64° 102° (ESE) 11:14:11 434.975-435.025
BUGSAT 1 20 Apr 11:05:49 11:09:49 70° 75° (ENE) 11:13:50 437.445
ANTELSAT 20 Apr 11:11:04 11:15:15 37° 264° (W) 11:19:30 437.575/2403.000
COMPASS 1 20 Apr 11:11:10 11:13:56 17° 295° (WNW) 11:16:34 437.405
HUMSAT D 20 Apr 11:13:26 11:17:46 63° 101° (E) 11:22:05 437.325/437.525
UWE-3 20 Apr 11:15:44 11:20:17 51° 287° (WNW) 11:24:49 435.000/436.395/437.385
QB50P2 20 Apr 11:20:43 11:24:51 54° 260° (W) 11:29:01 145.880/145.840
Cosmos 2491 20 Apr 11:28:14 11:36:50 58° 269° (W) 11:45:22 435.465 / 435.565
CINEMA 3 20 Apr 11:33:44 11:37:13 19° 295° (WNW) 11:40:37 145.822/145.860
FUNcube-1 20 Apr 11:42:03 11:46:14 35° 290° (WNW) 11:50:23 145.935
HO-68 20 Apr 11:42:07 11:47:17 21° 305° (NW) 11:52:12 435.675
NANOSAT C BR1 20 Apr 11:43:43 11:47:29 31° 264° (W) 11:51:15 145.865
POPSAT HIP 1 20 Apr 11:44:05 11:47:51 31° 264° (W) 11:51:37 437.405
VELOX 1 20 Apr 11:48:21 11:52:49 84° 103° (ESE) 11:57:15 145.980
50 SAT 20 Apr 11:49:56 11:54:01 80° 285° (WNW) 11:58:04 437.505
AIST 1 20 Apr 11:53:26 11:57:03 27° 73° (ENE) 12:00:43
UKube-1 20 Apr 11:57:37 12:01:40 38° 290° (WNW) 12:05:39 .
Oscar 19 20 Apr 11:58:32 12:01:33 16° 61° (ENE) 12:04:46 437.125/150
AISAT 20 Apr 12:03:47 12:08:12 65° 287° (WNW) 12:12:38 437.250
ZACube-1 20 Apr 12:05:26 12:08:58 22° 294° (WNW) 12:12:24 437.345
TIGRISAT 20 Apr 12:07:49 12:09:17 11° 274° (W) 12:10:29 435.000
SO-50 20 Apr 12:08:40 12:11:17 15° 110° (ESE) 12:14:08 436.795
UNISAT 6 20 Apr 12:09:51 12:10:49 10° 275° (W) 12:11:29 437.425
CUBEBUG 1 20 Apr 12:11:41 12:16:03 73° 102° (ESE) 12:20:24 437.445
POLYITAN 1 20 Apr 12:12:18 12:15:02 16° 270° (W) 12:17:38 437.675
TISAT 1 20 Apr 12:13:51 12:16:31 17° 91° (E) 12:19:20 437.305
CUBEBUG 2 20 Apr 12:14:48 12:17:14 14° 298° (WNW) 12:19:27 437.445
DELFI C3 20 Apr 12:15:08 12:16:14 11° 298° (WNW) 12:17:08 145.870
SPROUT 20 Apr 12:20:29 12:24:02 25° 94° (E) 12:27:39 437.525
BEESAT 2 20 Apr 12:20:39 12:24:15 28° 45° (NE) 12:27:52 435.950
ESTCUBE 1 20 Apr 12:21:25 12:25:56 80° 285° (WNW) 12:30:25 437.505/2401.250
DUCHIFAT 1 20 Apr 12:21:35 12:23:47 13° 271° (W) 12:25:48 145.980
PCSat 20 Apr 12:24:21 12:26:50 13° 329° (NNW) 12:29:08 145.827
BEESAT 3 20 Apr 12:27:00 12:30:50 37° 48° (NE) 12:34:39 437.485
YUBILEINY 20 Apr 12:37:23 12:45:59 54° 286° (WNW) 12:54:35 435.215
DX 1 20 Apr 12:43:17 12:45:40 14° 298° (WNW) 12:47:53 434.975-435.025
AIST 2 20 Apr 12:44:05 12:47:14 20° 40° (NE) 12:50:26 435.215
HUMSAT D 20 Apr 12:50:41 12:53:04 14° 297° (WNW) 12:55:17 437.325/437.525
